• Join FlightAware (Why Join?)
  • Login
  • US Flag 
12:03PM EDT


 

Airport Tracker/Info


-or-


 

Live Flight TrackerFlight Track Log ✈ AWE1940 ✈ 07-May-2013 ✈ KCLT - KALB

Flight Track Log - Related Links

Times and Time Zones

All times are in EDT time to prevent confusion due to time zone crossing. See the AWE1940 flight status page for this flight to view local times or setup timezone preferences in your user account.

Time Position Orientation Groundspeed Altitude Reporting Facility
EDT Latitude Longitude Course Direction KTS MPH feet Rate Location/Type
10:19PM 35.1908 -80.9356 167° South 165 190 2,200  Level Atlanta Center
10:20PM 35.1444 -80.9222 167° South 208 239 4,600 2,760 Climbing Atlanta Center
10:21PM 35.0950 -80.8556 132° Southeast 289 333 7,500 3,120 Climbing Atlanta Center
10:22PM 35.1069 -80.7611 81° East 301 346 11,000 3,180 Climbing Atlanta Center
10:22PM 35.1169 -80.7403 60° Northeast 297 342 11,600 2,340 Climbing Atlanta Center
10:23PM 35.1564 -80.6625 58° Northeast 302 348 14,000 2,400 Climbing Atlanta Center
10:24PM 35.2119 -80.5586 57° Northeast 335 386 16,500 2,640 Climbing Atlanta Center
10:26PM 35.3247 -80.3525 56° Northeast 348 400 22,000 2,100 Climbing Washington Center
10:27PM 35.3856 -80.2364 57° Northeast 374 430 22,900 480 Climbing Washington Center
10:28PM 35.4383 -80.1172 61° Northeast 391 450 23,000 480 Climbing Washington Center
10:29PM 35.4722 -79.9889 72° East 398 458 23,900 1,320 Climbing Washington Center
10:30PM 35.5083 -79.8583 71° East 391 450 25,600 1,860 Climbing Washington Center
10:31PM 35.5422 -79.7222 73° East 397 457 27,700 1,860 Climbing Washington Center
10:32PM 35.5739 -79.5886 74° East 397 457 29,400 1,380 Climbing Washington Center
10:33PM 35.6094 -79.4575 72° East 430 495 30,500 1,440 Climbing Washington Center
10:34PM 35.6642 -79.3119 65° Northeast 430 495 32,300 1,260 Climbing Washington Center
10:35PM 35.7094 -79.2014 63° Northeast 435 501 33,100 1,560 Climbing Washington Center
10:36PM 35.7747 -79.0381 64° Northeast 440 506 35,400 1,380 Climbing Washington Center
10:37PM 35.8286 -78.8994 64° Northeast 440 506 35,900 540 Climbing Washington Center
10:38PM 35.8908 -78.7583 61° Northeast 440 506 36,500 480 Climbing Washington Center
10:39PM 35.9572 -78.6200 59° Northeast 452 520 36,900 240 Climbing Washington Center
10:40PM 36.0231 -78.4811 60° Northeast 458 527 37,000  Climbing Washington Center
10:41PM 36.0889 -78.3447 59° Northeast 458 527 36,900  Descending Washington Center
10:42PM 36.1547 -78.2081 59° Northeast 458 527 37,000  Climbing Washington Center
10:43PM 36.2222 -78.0714 58° Northeast 458 527 36,900  Descending Washington Center
10:44PM 36.2856 -77.9342 60° Northeast 458 527 37,000  Climbing Washington Center
10:45PM 36.3506 -77.7969 60° Northeast 458 527 36,900  Descending Washington Center
10:46PM 36.4136 -77.6619 60° Northeast 458 527 37,000  Climbing Washington Center
10:47PM 36.4722 -77.5292 61° Northeast 452 520 37,000  Level Washington Center
10:48PM 36.5369 -77.3939 59° Northeast 452 520 37,000  Level Washington Center
10:49PM 36.5928 -77.2683 61° Northeast 447 514 37,000 -60 Level Washington Center
10:50PM 36.6572 -77.1325 59° Northeast 453 521 36,900 -60 Descending Washington Center
10:51PM 36.7278 -77.0042 56° Northeast 453 521 36,900  Level Washington Center
10:52PM 36.8311 -76.9100 36° Northeast 448 516 37,000  Climbing Washington Center
10:53PM 36.9322 -76.8158 37° Northeast 448 516 36,900  Descending Washington Center
10:54PM 37.0375 -76.7236 35° Northeast 453 521 37,000  Climbing Washington Center
10:55PM 37.1383 -76.6289 37° Northeast 453 521 37,000  Level Washington Center
10:56PM 37.2392 -76.5361 36° Northeast 453 521 37,000 -60 Level Washington Center
10:57PM 37.3506 -76.4331 36° Northeast 459 528 36,900  Descending Washington Center
10:58PM 37.4514 -76.3453 35° Northeast 454 522 37,000  Climbing Washington Center
10:59PM 37.5603 -76.2625 31° Northeast 454 522 36,900 -60 Descending Washington Center
11:00PM 37.6692 -76.1875 29° Northeast 449 517 36,900  Level Washington Center
11:01PM 37.7800 -76.1094 29° Northeast 449 517 36,900  Level Washington Center
11:02PM 37.8886 -76.0286 30° Northeast 443 510 37,000  Climbing Washington Center
11:03PM 37.9994 -75.9500 29° Northeast 443 510 36,900 -60 Descending Washington Center
11:04PM 38.1081 -75.8714 30° Northeast 443 510 36,900  Level Washington Center
11:05PM 38.2189 -75.7925 29° Northeast 443 510 36,900  Level Washington Center
11:06PM 38.3294 -75.7189 28° Northeast 443 510 36,900  Level Washington Center
11:07PM 38.4400 -75.6394 29° Northeast 443 510 36,900  Level Washington Center
11:08PM 38.5483 -75.5597 30° Northeast 443 510 36,900  Level Washington Center
11:09PM 38.6547 -75.4828 29° Northeast 443 510 36,900  Level Washington Center
11:10PM 38.7608 -75.4053 30° Northeast 437 503 36,900  Level Washington Center
11:11PM 38.8692 -75.3250 30° Northeast 442 509 36,900  Level Washington Center
11:12PM 38.9794 -75.2472 29° Northeast 442 509 36,900  Level Washington Center
11:13PM 39.0875 -75.1692 29° Northeast 442 509 36,900  Level Washington Center
11:14PM 39.1936 -75.0881 31° Northeast 442 509 36,900  Level Washington Center
11:15PM 39.3058 -75.0042 30° Northeast 442 509 36,900  Level Washington Center
11:18PM 39.5458 -74.8228 30° Northeast 440 506 36,900  Level New York Center
11:19PM 39.6569 -74.7400 30° Northeast 445 512 36,900  Level New York Center
11:20PM 39.7658 -74.6597 30° Northeast 450 518 36,900  Level New York Center
11:21PM 39.8750 -74.5794 29° Northeast 450 518 36,900  Level New York Center
11:22PM 39.9797 -74.4983 31° Northeast 445 512 36,900  Level New York Center
11:23PM 40.1142 -74.4622 12° North 437 503 36,900  Level New York Center
11:24PM 40.2381 -74.4308 11° North 437 503 36,900  Level New York Center
11:25PM 40.3578 -74.4044 10° North 437 503 36,900  Level New York Center
11:26PM 40.5711 -74.3497 11° North 429 494 36,900 -240 Level Boston Center
11:27PM 40.6903 -74.3206 11° North 434 499 36,400 -720 Descending Boston Center
11:28PM 40.7950 -74.3017 North 428 493 35,500 -900 Descending Boston Center
11:29PM 40.9119 -74.2747 10° North 423 487 34,600 -1,800 Descending Boston Center
11:30PM 41.0314 -74.2422 12° North 428 493 31,900 -3,000 Descending Boston Center
11:31PM 41.1506 -74.2097 12° North 428 493 28,600 -3,000 Descending Boston Center
11:32PM 41.2825 -74.1775 10° North 428 493 26,000 -1,320 Descending Boston Center
11:33PM 41.3997 -74.1447 12° North 428 493 26,000 -300 Level Boston Center
11:34PM 41.5250 -74.1175 North 441 507 25,500 -780 Descending Boston Center
11:36PM 41.6381 -74.0872 11° North 451 519 24,300 -2,460 Descending Boston Center
11:37PM 41.7928 -74.0522 10° North 446 513 20,100 -3,300 Descending Boston Center
11:38PM 41.9100 -74.0192 12° North 431 496 17,800 -3,000 Descending Boston Center
11:38PM 42.0189 -73.9911 11° North 413 475 14,400 -3,180 Descending Boston Center
11:40PM 42.1256 -73.9656 10° North 399 459 11,600 -1,740 Descending Boston Center
11:41PM 42.2319 -73.9403 10° North 382 440 11,000 -960 Descending Boston Center
11:42PM 42.3325 -73.9172 10° North 363 418 9,700 -1,200 Descending Boston Center
11:43PM 42.4197 -73.9278 355° North 293 337 8,700 -1,320 Descending Boston Center
11:44PM 42.4989 -73.9383 354° North 285 328 7,100 -1,680 Descending Boston Center
11:45PM 42.5842 -73.9486 355° North 292 336 5,300 -1,440 Descending Boston Center
11:46PM 42.6550 -73.9617 352° North 292 336 4,300 -900 Descending Boston Center
11:47PM 42.7217 -73.9578 North 270 311 3,500 -780 Descending Boston Center
11:48PM 42.7844 -73.9422 10° North 240 276 2,800 -600 Descending Boston Center
11:49PM 42.8533 -73.9297 North 227 261 2,400 -420 Descending Boston Center
11:50PM 42.8586 -73.8364 86° East 185 213 2,000 -240 Descending Boston Center
11:51PM 42.8256 -73.8103 150° Southeast 110 127 2,000 -600 Level Boston Center
11:52PM 42.7922 -73.8094 179° South 107 123 900 -900 Descending Boston Center
11:53PM 42.7589 -73.8058 175° South 119 137 300 -600 Descending Boston Center